AAL407 TAPA-KMIA

Flight info

Callsign AAL407
Flight time 2h 49m
Altitude 38000
Route GABAR Y280 ACONY Y308 MADIZ VIICE2
Aircraft B38M/M-SDE1FGHILORVWXY/HB1

Departure

Time 2026-05-07 17:16
Airport V. C. Bird International Airport (TAPA)

Arrival

Time 2026-05-07 20:05
Airport Miami International Airport (KMIA)
Time Latitude Longitude Altitude Speed Heading
2026-05-07 17:00 17.14101 -61.79045 71 ft 0 kts 330°
2026-05-07 17:05 17.14102 -61.79045 71 ft 0 kts 330°
2026-05-07 17:05 17.14102 -61.79046 71 ft 0 kts 330°
2026-05-07 17:07 17.14103 -61.79046 71 ft 0 kts 330°
2026-05-07 17:08 17.14103 -61.79047 71 ft 0 kts 330°
2026-05-07 17:08 17.14104 -61.79047 71 ft 0 kts 330°
2026-05-07 17:09 17.14107 -61.79049 71 ft 4 kts 330°
2026-05-07 17:09 17.14108 -61.79049 71 ft 1 kts 330°
2026-05-07 17:10 17.14096 -61.79042 71 ft 3 kts 330°
2026-05-07 17:10 17.14080 -61.79032 71 ft 3 kts 330°
2026-05-07 17:10 17.14062 -61.79022 71 ft 3 kts 330°
2026-05-07 17:10 17.14044 -61.79011 71 ft 3 kts 330°
2026-05-07 17:11 17.14039 -61.79007 71 ft 0 kts 330°
2026-05-07 17:11 17.14042 -61.79011 71 ft 1 kts 302°
2026-05-07 17:11 17.14042 -61.79017 71 ft 1 kts 243°
2026-05-07 17:11 17.14038 -61.79020 71 ft 1 kts 213°
2026-05-07 17:12 17.14015 -61.79037 71 ft 7 kts 213°
2026-05-07 17:12 17.13954 -61.79079 71 ft 14 kts 213°
2026-05-07 17:12 17.13868 -61.79157 71 ft 19 kts 236°
2026-05-07 17:12 17.13782 -61.79295 71 ft 26 kts 238°
2026-05-07 17:13 17.13682 -61.79464 71 ft 27 kts 238°
2026-05-07 17:13 17.13589 -61.79623 71 ft 24 kts 240°
2026-05-07 17:13 17.13510 -61.79765 71 ft 21 kts 239°
2026-05-07 17:13 17.13412 -61.79844 71 ft 17 kts 187°
2026-05-07 17:14 17.13319 -61.79885 71 ft 13 kts 229°
2026-05-07 17:14 17.13273 -61.79956 71 ft 10 kts 238°
2026-05-07 17:14 17.13240 -61.80013 71 ft 8 kts 238°
2026-05-07 17:14 17.13216 -61.80053 71 ft 5 kts 237°
2026-05-07 17:15 17.13173 -61.80111 71 ft 14 kts 209°
2026-05-07 17:15 17.13123 -61.80171 71 ft 7 kts 322°
2026-05-07 17:15 17.13160 -61.80149 71 ft 9 kts 54°
2026-05-07 17:15 17.13309 -61.79900 71 ft 79 kts 60°
2026-05-07 17:16 17.13738 -61.79180 72 ft 152 kts 59°
2026-05-07 17:16 17.14346 -61.78149 707 ft 166 kts 59°
2026-05-07 17:16 17.15097 -61.77207 1606 ft 179 kts 42°
2026-05-07 17:16 17.16372 -61.76926 2215 ft 205 kts
2026-05-07 17:17 17.17690 -61.77670 2792 ft 231 kts 321°
2026-05-07 17:17 17.18386 -61.79212 3445 ft 250 kts 283°
2026-05-07 17:17 17.18138 -61.81035 4129 ft 261 kts 248°
2026-05-07 17:17 17.17462 -61.82829 4924 ft 275 kts 255°
2026-05-07 17:18 17.17322 -61.84863 5757 ft 285 kts 269°
2026-05-07 17:18 17.17435 -61.86954 6676 ft 290 kts 274°
2026-05-07 17:18 17.17643 -61.89071 7617 ft 294 kts 276°
2026-05-07 17:18 17.17913 -61.91207 8530 ft 297 kts 278°
2026-05-07 17:19 17.18221 -61.93356 9412 ft 301 kts 279°
2026-05-07 17:19 17.18551 -61.95522 10296 ft 303 kts 279°
2026-05-07 17:19 17.18902 -61.97755 10838 ft 320 kts 279°
2026-05-07 17:19 17.19280 -62.00110 11280 ft 335 kts 279°
2026-05-07 17:20 17.19674 -62.02543 11901 ft 342 kts 279°
2026-05-07 17:20 17.20070 -62.04977 12674 ft 345 kts 280°
2026-05-07 17:20 17.20475 -62.07459 13398 ft 349 kts 280°
2026-05-07 17:20 17.20885 -62.09976 14094 ft 353 kts 280°
2026-05-07 17:21 17.21298 -62.12517 14763 ft 356 kts 280°
2026-05-07 17:21 17.21717 -62.15093 15414 ft 360 kts 281°
2026-05-07 17:21 17.22138 -62.17685 16043 ft 363 kts 281°
2026-05-07 17:21 17.22563 -62.20302 16646 ft 367 kts 281°
2026-05-07 17:22 17.22990 -62.22935 17232 ft 370 kts 281°
2026-05-07 17:22 17.23277 -62.24703 17606 ft 372 kts 281°
2026-05-07 17:22 17.23713 -62.27390 18161 ft 375 kts 281°
2026-05-07 17:22 17.24149 -62.30091 18694 ft 378 kts 281°
2026-05-07 17:23 17.24590 -62.32816 19210 ft 381 kts 281°
2026-05-07 17:23 17.25035 -62.35569 19711 ft 384 kts 281°
2026-05-07 17:23 17.25481 -62.38331 20208 ft 387 kts 281°
2026-05-07 17:23 17.25931 -62.41124 20681 ft 389 kts 281°
2026-05-07 17:24 17.26375 -62.43881 21140 ft 392 kts 281°
2026-05-07 17:24 17.26832 -62.46714 21588 ft 395 kts 280°
2026-05-07 17:24 17.27289 -62.49560 22031 ft 397 kts 280°
2026-05-07 17:24 17.27750 -62.52423 22456 ft 400 kts 280°
2026-05-07 17:25 17.28211 -62.55302 22879 ft 402 kts 280°
2026-05-07 17:25 17.28676 -62.58198 23283 ft 405 kts 280°
2026-05-07 17:25 17.29145 -62.61122 23684 ft 407 kts 280°
2026-05-07 17:25 17.29609 -62.64023 24074 ft 410 kts 280°
2026-05-07 17:26 17.30081 -62.66970 24454 ft 412 kts 280°
2026-05-07 17:26 17.30556 -62.69943 24849 ft 414 kts 280°
2026-05-07 17:26 17.31032 -62.72926 25232 ft 416 kts 280°
2026-05-07 17:26 17.31509 -62.75917 25609 ft 418 kts 280°
2026-05-07 17:27 17.31990 -62.78936 25979 ft 420 kts 280°
2026-05-07 17:27 17.32471 -62.81957 26346 ft 422 kts 280°
2026-05-07 17:27 17.32948 -62.84954 26708 ft 424 kts 279°
2026-05-07 17:27 17.33433 -62.88010 27065 ft 426 kts 280°
2026-05-07 17:28 17.33919 -62.91069 27420 ft 427 kts 279°
2026-05-07 17:28 17.34407 -62.94148 27754 ft 429 kts 279°
2026-05-07 17:28 17.34896 -62.97236 28086 ft 431 kts 279°
2026-05-07 17:28 17.35632 -63.00283 28361 ft 433 kts 291°
2026-05-07 17:29 17.36864 -63.03156 28721 ft 434 kts 295°
2026-05-07 17:29 17.38157 -63.06014 29020 ft 436 kts 295°
2026-05-07 17:29 17.39471 -63.08876 29319 ft 437 kts 296°
2026-05-07 17:29 17.40800 -63.11748 29626 ft 439 kts 296°
2026-05-07 17:30 17.42123 -63.14597 29913 ft 441 kts 296°
2026-05-07 17:30 17.43465 -63.17490 30210 ft 442 kts 296°
2026-05-07 17:30 17.44815 -63.20397 30499 ft 444 kts 296°
2026-05-07 17:30 17.46165 -63.23308 30784 ft 445 kts 296°
2026-05-07 17:31 17.47524 -63.26237 31057 ft 447 kts 296°
2026-05-07 17:31 17.48884 -63.29170 31323 ft 449 kts 295°
2026-05-07 17:31 17.50246 -63.32112 31585 ft 450 kts 295°
2026-05-07 17:31 17.51617 -63.35071 31856 ft 452 kts 295°
2026-05-07 17:32 17.52990 -63.38037 32122 ft 453 kts 295°
2026-05-07 17:32 17.54365 -63.41010 32380 ft 454 kts 295°
2026-05-07 17:32 17.55750 -63.44004 32641 ft 456 kts 295°
2026-05-07 17:32 17.57133 -63.46995 32903 ft 457 kts 295°
2026-05-07 17:33 17.58519 -63.49996 33200 ft 457 kts 295°
2026-05-07 17:33 17.59884 -63.52951 33576 ft 455 kts 295°
2026-05-07 17:33 17.61278 -63.55971 33958 ft 454 kts 295°
2026-05-07 17:33 17.62634 -63.58910 34322 ft 452 kts 295°
2026-05-07 17:34 17.63996 -63.61862 34663 ft 451 kts 295°
2026-05-07 17:34 17.65360 -63.64822 35027 ft 449 kts 295°
2026-05-07 17:34 17.66720 -63.67773 35359 ft 448 kts 295°
2026-05-07 17:34 17.68071 -63.70709 35668 ft 447 kts 295°
2026-05-07 17:35 17.69425 -63.73649 35976 ft 446 kts 295°
2026-05-07 17:35 17.70777 -63.76588 36080 ft 447 kts 295°
2026-05-07 17:35 17.73452 -63.82408 36093 ft 445 kts 295°
2026-05-07 17:36 17.76139 -63.88257 36096 ft 445 kts 295°
2026-05-07 17:36 17.78823 -63.94108 36098 ft 445 kts 295°
2026-05-07 17:37 17.81505 -63.99956 36100 ft 445 kts 295°
2026-05-07 17:37 17.84186 -64.05811 36102 ft 445 kts 295°
2026-05-07 17:38 17.86866 -64.11668 36104 ft 445 kts 295°
2026-05-07 17:38 17.89527 -64.17489 36105 ft 445 kts 295°
2026-05-07 17:39 17.92208 -64.23360 36107 ft 445 kts 295°
2026-05-07 17:39 17.94880 -64.29216 36109 ft 445 kts 295°
2026-05-07 17:40 17.97552 -64.35078 36111 ft 445 kts 295°
2026-05-07 17:40 18.00223 -64.40945 36112 ft 445 kts 295°
2026-05-07 17:41 18.02874 -64.46772 36114 ft 445 kts 295°
2026-05-07 17:41 18.05545 -64.52648 36116 ft 446 kts 295°
2026-05-07 17:42 18.08217 -64.58533 36112 ft 446 kts 295°
2026-05-07 17:42 18.10889 -64.64423 36111 ft 446 kts 295°
2026-05-07 17:43 18.13540 -64.70274 36110 ft 446 kts 294°
2026-05-07 17:43 18.16210 -64.76170 36107 ft 446 kts 294°
2026-05-07 17:44 18.18876 -64.82063 36103 ft 446 kts 294°
2026-05-07 17:44 18.21539 -64.87959 36097 ft 446 kts 294°
2026-05-07 17:45 18.24202 -64.93858 36093 ft 447 kts 294°
2026-05-07 17:45 18.26854 -64.99738 36091 ft 447 kts 294°
2026-05-07 17:46 18.29518 -65.05651 36089 ft 447 kts 294°
2026-05-07 17:46 18.32185 -65.11577 36090 ft 447 kts 294°
2026-05-07 17:47 18.34849 -65.17503 36091 ft 447 kts 294°
2026-05-07 17:47 18.37511 -65.23429 36099 ft 447 kts 294°
2026-05-07 17:48 18.40154 -65.29317 36100 ft 447 kts 294°
2026-05-07 17:48 18.42814 -65.35251 36102 ft 447 kts 294°
2026-05-07 17:49 18.45473 -65.41190 36102 ft 448 kts 294°
2026-05-07 17:49 18.48119 -65.47103 36104 ft 448 kts 294°
2026-05-07 17:50 18.50769 -65.53034 36106 ft 448 kts 294°
2026-05-07 17:50 18.53428 -65.58988 36105 ft 448 kts 294°
2026-05-07 17:51 18.56059 -65.64887 36105 ft 448 kts 294°
2026-05-07 17:51 18.58707 -65.70830 36099 ft 448 kts 294°
2026-05-07 17:52 18.61356 -65.76781 36097 ft 448 kts 294°
2026-05-07 17:52 18.64008 -65.82744 36095 ft 448 kts 294°
2026-05-07 17:53 18.66633 -65.88652 36093 ft 448 kts 294°
2026-05-07 17:53 18.69274 -65.94605 36093 ft 448 kts 294°
2026-05-07 17:54 18.71916 -66.00563 36093 ft 448 kts 294°
2026-05-07 17:54 18.74556 -66.06524 36086 ft 448 kts 294°
2026-05-07 17:55 18.77194 -66.12487 36086 ft 447 kts 294°
2026-05-07 17:55 18.79806 -66.18397 36085 ft 447 kts 294°
2026-05-07 17:56 18.82442 -66.24363 36085 ft 447 kts 294°
2026-05-07 17:56 18.85066 -66.30312 36084 ft 447 kts 293°
2026-05-07 17:57 18.87248 -66.35261 36089 ft 447 kts 293°
2026-05-07 17:57 18.90299 -66.42190 36106 ft 447 kts 293°
2026-05-07 17:58 18.93012 -66.48110 36113 ft 448 kts 297°
2026-05-07 17:58 18.96048 -66.53853 36111 ft 448 kts 297°
2026-05-07 17:59 18.99047 -66.59622 36114 ft 448 kts 297°
2026-05-07 17:59 19.02044 -66.65405 36116 ft 448 kts 297°
2026-05-07 18:00 19.05021 -66.71155 36118 ft 448 kts 297°
2026-05-07 18:00 19.08010 -66.76935 36120 ft 448 kts 297°
2026-05-07 18:01 19.11004 -66.82730 36121 ft 448 kts 297°
2026-05-07 18:01 19.13995 -66.88526 36122 ft 448 kts 297°
2026-05-07 18:02 19.18448 -66.97161 36122 ft 448 kts 297°
2026-05-07 18:03 19.21435 -67.02963 36122 ft 448 kts 297°
2026-05-07 18:03 19.24418 -67.08762 36117 ft 448 kts 297°
2026-05-07 18:04 19.27397 -67.14558 36118 ft 448 kts 296°
2026-05-07 18:04 19.30376 -67.20362 36122 ft 448 kts 296°
2026-05-07 18:05 19.33337 -67.26134 36121 ft 449 kts 296°
2026-05-07 18:05 19.36316 -67.31947 36119 ft 450 kts 296°
2026-05-07 18:06 19.39299 -67.37776 36117 ft 450 kts 296°
2026-05-07 18:06 19.42287 -67.43617 36116 ft 450 kts 296°
2026-05-07 18:07 19.45268 -67.49453 36114 ft 451 kts 296°
2026-05-07 18:07 19.48243 -67.55282 36112 ft 452 kts 296°
2026-05-07 18:08 19.51235 -67.61149 36111 ft 452 kts 296°
2026-05-07 18:08 19.54223 -67.67015 36109 ft 452 kts 296°
2026-05-07 18:09 19.57213 -67.72892 36107 ft 453 kts 296°
2026-05-07 18:09 19.60207 -67.78781 36106 ft 454 kts 296°
2026-05-07 18:10 19.63198 -67.84672 36105 ft 454 kts 296°
2026-05-07 18:10 19.66179 -67.90547 36104 ft 454 kts 296°
2026-05-07 18:11 19.69173 -67.96456 36103 ft 455 kts 296°
2026-05-07 18:11 19.72165 -68.02365 36102 ft 455 kts 296°
2026-05-07 18:12 19.75160 -68.08288 36101 ft 455 kts 296°
2026-05-07 18:12 19.77671 -68.13256 36100 ft 455 kts 296°
2026-05-07 18:13 19.80656 -68.19170 36098 ft 455 kts 296°
2026-05-07 18:13 19.83632 -68.25070 36098 ft 455 kts 296°
2026-05-07 18:14 19.86621 -68.31005 36097 ft 455 kts 296°
2026-05-07 18:14 19.89586 -68.36896 36096 ft 454 kts 296°
2026-05-07 18:15 19.92563 -68.42818 36066 ft 454 kts 296°
2026-05-07 18:15 19.95534 -68.48734 36066 ft 454 kts 296°
2026-05-07 18:16 19.98504 -68.54654 36065 ft 453 kts 296°
2026-05-07 18:16 20.01467 -68.60565 36063 ft 454 kts 296°
2026-05-07 18:17 20.04441 -68.66507 36063 ft 455 kts 296°
2026-05-07 18:17 20.07412 -68.72447 36063 ft 454 kts 296°
2026-05-07 18:18 20.10381 -68.78388 36062 ft 454 kts 296°
2026-05-07 18:18 20.13329 -68.84296 36061 ft 453 kts 296°
2026-05-07 18:19 20.16281 -68.90217 36061 ft 453 kts 296°
2026-05-07 18:19 20.19232 -68.96142 36060 ft 452 kts 296°
2026-05-07 18:20 20.22173 -69.02053 36060 ft 452 kts 296°
2026-05-07 18:20 20.25115 -69.07972 36060 ft 451 kts 296°
2026-05-07 18:21 20.28036 -69.13858 36065 ft 451 kts 296°
2026-05-07 18:21 20.30965 -69.19762 36072 ft 450 kts 296°
2026-05-07 18:22 20.33893 -69.25672 36071 ft 450 kts 296°
2026-05-07 18:22 20.36809 -69.31565 36071 ft 450 kts 296°
2026-05-07 18:23 20.39701 -69.37415 36070 ft 449 kts 296°
2026-05-07 18:23 20.42616 -69.43316 36070 ft 448 kts 296°
2026-05-07 18:24 20.45522 -69.49207 36069 ft 448 kts 296°
2026-05-07 18:24 20.48426 -69.55100 36069 ft 448 kts 296°
2026-05-07 18:25 20.51311 -69.60961 36083 ft 448 kts 296°
2026-05-07 18:25 20.54210 -69.66855 36083 ft 448 kts 296°
2026-05-07 18:26 20.57102 -69.72744 36074 ft 448 kts 296°
2026-05-07 18:26 20.59998 -69.78645 36065 ft 448 kts 296°
2026-05-07 18:27 20.62888 -69.84540 36065 ft 448 kts 296°
2026-05-07 18:27 20.65777 -69.90441 36065 ft 448 kts 296°
2026-05-07 18:28 20.68649 -69.96311 36065 ft 448 kts 296°
2026-05-07 18:28 20.71538 -70.02223 36065 ft 448 kts 296°
2026-05-07 18:29 20.74425 -70.08139 36065 ft 449 kts 296°
2026-05-07 18:29 20.77308 -70.14053 36065 ft 449 kts 296°
2026-05-07 18:30 20.80195 -70.19979 36064 ft 449 kts 296°
2026-05-07 18:30 20.83060 -70.25869 36064 ft 450 kts 296°
2026-05-07 18:31 20.85945 -70.31805 36063 ft 450 kts 296°
2026-05-07 18:31 20.88832 -70.37752 36062 ft 450 kts 296°
2026-05-07 18:32 20.91712 -70.43691 36061 ft 450 kts 296°
2026-05-07 18:32 20.94578 -70.49608 36061 ft 451 kts 296°
2026-05-07 18:33 20.97463 -70.55571 36059 ft 451 kts 296°
2026-05-07 18:33 21.00345 -70.61533 36062 ft 451 kts 296°
2026-05-07 18:34 21.03230 -70.67511 36060 ft 451 kts 296°
2026-05-07 18:34 21.06113 -70.73488 36056 ft 451 kts 296°
2026-05-07 18:35 21.08975 -70.79429 36055 ft 451 kts 296°
2026-05-07 18:35 21.11857 -70.85418 36055 ft 451 kts 296°
2026-05-07 18:36 21.14736 -70.91409 36053 ft 452 kts 296°
2026-05-07 18:36 21.17611 -70.97398 36053 ft 452 kts 296°
2026-05-07 18:37 21.20492 -71.03405 36052 ft 452 kts 296°
2026-05-07 18:37 21.23348 -71.09368 36052 ft 452 kts 295°
2026-05-07 18:38 21.26225 -71.15379 36052 ft 453 kts 295°
2026-05-07 18:38 21.29101 -71.21396 36053 ft 453 kts 295°
2026-05-07 18:39 21.31978 -71.27424 36055 ft 454 kts 295°
2026-05-07 18:39 21.34853 -71.33452 36053 ft 454 kts 295°
2026-05-07 18:40 21.37712 -71.39456 36053 ft 454 kts 296°
2026-05-07 18:40 21.40590 -71.45505 36054 ft 455 kts 295°
2026-05-07 18:41 21.43464 -71.51552 36056 ft 455 kts 295°
2026-05-07 18:41 21.46346 -71.57624 36057 ft 456 kts 295°
2026-05-07 18:42 21.49213 -71.63671 36060 ft 456 kts 295°
2026-05-07 18:42 21.52097 -71.69759 36063 ft 457 kts 295°
2026-05-07 18:43 21.54967 -71.75828 36066 ft 457 kts 295°
2026-05-07 18:43 21.57854 -71.81938 36068 ft 458 kts 295°
2026-05-07 18:44 21.60741 -71.88055 36072 ft 459 kts 295°
2026-05-07 18:44 21.63622 -71.94168 36075 ft 459 kts 295°
2026-05-07 18:45 21.66489 -72.00256 36078 ft 459 kts 295°
2026-05-07 18:45 21.69375 -72.06394 36079 ft 459 kts 295°
2026-05-07 18:46 21.72259 -72.12534 36080 ft 459 kts 295°
2026-05-07 18:46 21.75139 -72.18673 36081 ft 459 kts 295°
2026-05-07 18:47 21.77999 -72.24776 36081 ft 459 kts 295°
2026-05-07 18:47 21.80876 -72.30923 36081 ft 459 kts 295°
2026-05-07 18:48 21.83747 -72.37063 36082 ft 459 kts 295°
2026-05-07 18:48 21.86617 -72.43209 36081 ft 459 kts 295°
2026-05-07 18:49 21.89467 -72.49322 36082 ft 458 kts 295°
2026-05-07 18:49 21.92329 -72.55465 36082 ft 458 kts 295°
2026-05-07 18:50 21.95186 -72.61607 36082 ft 458 kts 295°
2026-05-07 18:50 21.98040 -72.67748 36082 ft 458 kts 295°
2026-05-07 18:51 22.00872 -72.73849 36081 ft 458 kts 295°
2026-05-07 18:51 22.03748 -72.80052 36083 ft 461 kts 296°
2026-05-07 18:52 22.06593 -72.86197 36083 ft 461 kts 295°
2026-05-07 18:52 22.09457 -72.92391 36084 ft 461 kts 296°
2026-05-07 18:53 22.12315 -72.98579 36084 ft 461 kts 296°
2026-05-07 18:53 22.15175 -73.04779 36085 ft 461 kts 296°
2026-05-07 18:54 22.18023 -73.10959 36086 ft 461 kts 296°
2026-05-07 18:54 22.20876 -73.17159 36086 ft 461 kts 296°
2026-05-07 18:55 22.23732 -73.23372 36087 ft 461 kts 296°
2026-05-07 18:55 22.26581 -73.29579 36088 ft 461 kts 296°
2026-05-07 18:56 22.29418 -73.35765 36089 ft 461 kts 296°
2026-05-07 18:56 22.32267 -73.41987 36090 ft 461 kts 296°
2026-05-07 18:57 22.35109 -73.48200 36091 ft 461 kts 296°
2026-05-07 18:57 22.37931 -73.54380 36092 ft 461 kts 296°
2026-05-07 18:58 22.40773 -73.60608 36094 ft 461 kts 296°
2026-05-07 18:58 22.43610 -73.66834 36095 ft 461 kts 296°
2026-05-07 18:59 22.46442 -73.73056 36096 ft 461 kts 296°
2026-05-07 18:59 22.49259 -73.79254 36100 ft 461 kts 296°
2026-05-07 19:00 22.51612 -73.84437 36099 ft 461 kts 296°
2026-05-07 19:00 22.54439 -73.90672 36099 ft 462 kts 296°
2026-05-07 19:01 22.57266 -73.96913 36101 ft 461 kts 296°
2026-05-07 19:01 22.60091 -74.03159 36102 ft 462 kts 296°
2026-05-07 19:02 22.62915 -74.09411 36103 ft 462 kts 295°
2026-05-07 19:02 22.65723 -74.15632 36103 ft 462 kts 295°
2026-05-07 19:03 22.68549 -74.21903 36104 ft 462 kts 296°
2026-05-07 19:03 22.71369 -74.28170 36106 ft 462 kts 296°
2026-05-07 19:04 22.74188 -74.34444 36106 ft 463 kts 295°
2026-05-07 19:04 22.76990 -74.40684 36107 ft 463 kts 295°
2026-05-07 19:05 22.79810 -74.46974 36108 ft 463 kts 295°
2026-05-07 19:05 22.82622 -74.53254 36109 ft 463 kts 295°
2026-05-07 19:06 22.85432 -74.59539 36109 ft 463 kts 295°
2026-05-07 19:06 22.89636 -74.68955 36111 ft 464 kts 295°
2026-05-07 19:07 22.92453 -74.75276 36111 ft 464 kts 295°
2026-05-07 19:07 22.95267 -74.81596 36111 ft 465 kts 295°
2026-05-07 19:08 22.98075 -74.87912 36111 ft 465 kts 295°
2026-05-07 19:08 23.00865 -74.94197 36111 ft 465 kts 295°
2026-05-07 19:09 23.03667 -75.00516 36112 ft 465 kts 295°
2026-05-07 19:09 23.06469 -75.06843 36112 ft 465 kts 295°
2026-05-07 19:10 23.09275 -75.13188 36112 ft 465 kts 295°
2026-05-07 19:10 23.12074 -75.19527 36112 ft 466 kts 295°
2026-05-07 19:11 23.14882 -75.25892 36110 ft 466 kts 295°
2026-05-07 19:11 23.17667 -75.32214 36110 ft 466 kts 295°
2026-05-07 19:12 23.20463 -75.38569 36110 ft 466 kts 295°
2026-05-07 19:12 23.23265 -75.44947 36110 ft 466 kts 295°
2026-05-07 19:13 23.26043 -75.51280 36099 ft 466 kts 295°
2026-05-07 19:13 23.28833 -75.57649 36099 ft 466 kts 295°
2026-05-07 19:14 23.31630 -75.64039 36100 ft 466 kts 295°
2026-05-07 19:14 23.34399 -75.70376 36100 ft 466 kts 295°
2026-05-07 19:15 23.37186 -75.76764 36100 ft 467 kts 295°
2026-05-07 19:15 23.39966 -75.83142 36101 ft 467 kts 295°
2026-05-07 19:16 23.42747 -75.89534 36100 ft 467 kts 295°
2026-05-07 19:16 23.45531 -75.95939 36099 ft 467 kts 295°
2026-05-07 19:17 23.48292 -76.02300 36099 ft 468 kts 295°
2026-05-07 19:17 23.51074 -76.08718 36099 ft 468 kts 295°
2026-05-07 19:18 23.53847 -76.15126 36099 ft 468 kts 295°
2026-05-07 19:18 23.56622 -76.21546 36097 ft 468 kts 295°
2026-05-07 19:19 23.59377 -76.27926 36096 ft 468 kts 295°
2026-05-07 19:19 23.62147 -76.34353 36095 ft 468 kts 295°
2026-05-07 19:20 23.64913 -76.40778 36095 ft 468 kts 295°
2026-05-07 19:20 23.67663 -76.47177 36095 ft 468 kts 295°
2026-05-07 19:21 23.70424 -76.53607 36094 ft 468 kts 295°
2026-05-07 19:21 23.73184 -76.60044 36094 ft 468 kts 295°
2026-05-07 19:22 23.75939 -76.66481 36092 ft 468 kts 295°
2026-05-07 19:22 23.78696 -76.72927 36093 ft 469 kts 295°
2026-05-07 19:23 23.81436 -76.79343 36092 ft 469 kts 295°
2026-05-07 19:23 23.84190 -76.85799 36091 ft 469 kts 295°
2026-05-07 19:24 23.86940 -76.92258 36091 ft 469 kts 295°
2026-05-07 19:24 23.89699 -76.98743 36091 ft 469 kts 295°
2026-05-07 19:25 23.92431 -77.05175 36092 ft 469 kts 295°
2026-05-07 19:25 23.95170 -77.11634 36092 ft 469 kts 295°
2026-05-07 19:26 23.97911 -77.18104 36092 ft 469 kts 295°
2026-05-07 19:26 24.00654 -77.24590 36093 ft 469 kts 295°
2026-05-07 19:27 24.03392 -77.31071 36093 ft 469 kts 295°
2026-05-07 19:27 24.06125 -77.37550 36093 ft 469 kts 295°
2026-05-07 19:28 24.08845 -77.44008 36096 ft 469 kts 295°
2026-05-07 19:28 24.11574 -77.50496 36100 ft 469 kts 295°
2026-05-07 19:29 24.14304 -77.56996 36099 ft 469 kts 295°
2026-05-07 19:29 24.17026 -77.63486 36099 ft 469 kts 295°
2026-05-07 19:30 24.19732 -77.69945 36099 ft 469 kts 294°
2026-05-07 19:30 24.22448 -77.76439 36099 ft 469 kts 294°
2026-05-07 19:31 24.25167 -77.82949 36096 ft 469 kts 294°
2026-05-07 19:31 24.28230 -77.89259 36099 ft 469 kts 303°
2026-05-07 19:32 24.31827 -77.95216 36095 ft 469 kts 304°
2026-05-07 19:32 24.35477 -78.01165 36096 ft 469 kts 304°
2026-05-07 19:33 24.39099 -78.07064 36097 ft 470 kts 304°
2026-05-07 19:33 24.42755 -78.13025 36097 ft 469 kts 304°
2026-05-07 19:34 24.46402 -78.18980 36096 ft 469 kts 304°
2026-05-07 19:34 24.50016 -78.24885 36090 ft 468 kts 304°
2026-05-07 19:35 24.51839 -78.27868 35902 ft 462 kts 304°
2026-05-07 19:35 24.53595 -78.30742 35599 ft 456 kts 304°
2026-05-07 19:35 24.55372 -78.33653 35163 ft 451 kts 304°
2026-05-07 19:35 24.57091 -78.36470 34657 ft 447 kts 304°
2026-05-07 19:36 24.58819 -78.39304 34133 ft 445 kts 304°
2026-05-07 19:36 24.60538 -78.42124 33627 ft 442 kts 304°
2026-05-07 19:36 24.62245 -78.44926 33135 ft 439 kts 304°
2026-05-07 19:36 24.63940 -78.47710 32646 ft 436 kts 304°
2026-05-07 19:37 24.65619 -78.50470 32159 ft 433 kts 304°
2026-05-07 19:37 24.67295 -78.53226 31671 ft 430 kts 304°
2026-05-07 19:37 24.68952 -78.55953 31186 ft 427 kts 304°
2026-05-07 19:37 24.70578 -78.58630 30711 ft 424 kts 304°
2026-05-07 19:38 24.72207 -78.61313 30236 ft 421 kts 304°
2026-05-07 19:38 24.73829 -78.63986 29762 ft 418 kts 304°
2026-05-07 19:38 24.75438 -78.66639 29282 ft 415 kts 304°
2026-05-07 19:38 24.77035 -78.69272 28805 ft 412 kts 304°
2026-05-07 19:39 24.78618 -78.71885 28326 ft 409 kts 304°
2026-05-07 19:39 24.80186 -78.74478 27788 ft 407 kts 304°
2026-05-07 19:39 24.81752 -78.77067 27327 ft 404 kts 304°
2026-05-07 19:39 24.82785 -78.78775 27025 ft 402 kts 304°
2026-05-07 19:40 24.84845 -78.82181 26405 ft 397 kts 304°
2026-05-07 19:40 24.86352 -78.84677 25944 ft 395 kts 304°
2026-05-07 19:40 24.87868 -78.87188 25477 ft 392 kts 305°
2026-05-07 19:40 24.89367 -78.89672 25013 ft 389 kts 305°
2026-05-07 19:41 24.90859 -78.92144 24551 ft 386 kts 305°
2026-05-07 19:41 24.92337 -78.94597 24090 ft 383 kts 305°
2026-05-07 19:41 24.93811 -78.97043 23630 ft 380 kts 305°
2026-05-07 19:41 24.95266 -78.99459 23173 ft 378 kts 305°
2026-05-07 19:42 24.96713 -79.01864 22716 ft 375 kts 305°
2026-05-07 19:42 24.98148 -79.04248 22260 ft 372 kts 305°
2026-05-07 19:42 24.99558 -79.06593 21810 ft 369 kts 304°
2026-05-07 19:42 25.00971 -79.08944 21355 ft 367 kts 304°
2026-05-07 19:43 25.02374 -79.11279 21031 ft 361 kts 304°
2026-05-07 19:43 25.03764 -79.13595 20474 ft 362 kts 304°
2026-05-07 19:43 25.05154 -79.15911 19977 ft 361 kts 304°
2026-05-07 19:43 25.06535 -79.18213 19525 ft 359 kts 304°
2026-05-07 19:44 25.07908 -79.20504 19081 ft 356 kts 304°
2026-05-07 19:44 25.09264 -79.22767 18632 ft 353 kts 304°
2026-05-07 19:44 25.10613 -79.25019 18183 ft 351 kts 304°
2026-05-07 19:44 25.11953 -79.27257 17734 ft 348 kts 304°
2026-05-07 19:45 25.13267 -79.29452 17293 ft 345 kts 304°
2026-05-07 19:45 25.14600 -79.31679 16847 ft 342 kts 304°
2026-05-07 19:45 25.15894 -79.33845 16407 ft 340 kts 304°
2026-05-07 19:45 25.17189 -79.36012 15951 ft 338 kts 304°
2026-05-07 19:46 25.18479 -79.38171 15477 ft 336 kts 304°
2026-05-07 19:46 25.19759 -79.40314 15096 ft 331 kts 304°
2026-05-07 19:46 25.20995 -79.42387 15077 ft 315 kts 304°
2026-05-07 19:46 25.22184 -79.44379 15043 ft 306 kts 304°
2026-05-07 19:47 25.23354 -79.46342 15037 ft 310 kts 304°
2026-05-07 19:47 25.24567 -79.48377 15032 ft 319 kts 304°
2026-05-07 19:47 25.25795 -79.50438 15028 ft 324 kts 304°
2026-05-07 19:47 25.27036 -79.52521 15026 ft 324 kts 304°
2026-05-07 19:48 25.28260 -79.54578 15025 ft 324 kts 304°
2026-05-07 19:48 25.29499 -79.56659 15023 ft 324 kts 304°
2026-05-07 19:48 25.30740 -79.58746 15023 ft 324 kts 304°
2026-05-07 19:48 25.31976 -79.60827 15023 ft 324 kts 304°
2026-05-07 19:49 25.33213 -79.62908 15022 ft 324 kts 304°
2026-05-07 19:49 25.34446 -79.64984 15021 ft 324 kts 304°
2026-05-07 19:49 25.35681 -79.67064 15021 ft 323 kts 304°
2026-05-07 19:49 25.36914 -79.69142 15065 ft 323 kts 304°
2026-05-07 19:50 25.37734 -79.70524 15226 ft 323 kts 304°
2026-05-07 19:50 25.38991 -79.72596 15375 ft 327 kts 306°
2026-05-07 19:50 25.40306 -79.74637 15096 ft 325 kts 306°
2026-05-07 19:50 25.41614 -79.76673 14731 ft 323 kts 306°
2026-05-07 19:51 25.43328 -79.79349 14078 ft 322 kts 306°
2026-05-07 19:51 25.44204 -79.80720 13702 ft 323 kts 306°
2026-05-07 19:51 25.45503 -79.82754 13136 ft 325 kts 306°
2026-05-07 19:51 25.46816 -79.84809 12564 ft 327 kts 306°
2026-05-07 19:52 25.48130 -79.86865 12083 ft 326 kts 306°
2026-05-07 19:52 25.49420 -79.88877 11874 ft 315 kts 306°
2026-05-07 19:52 25.50650 -79.90799 11722 ft 306 kts 306°
2026-05-07 19:52 25.51880 -79.92719 11607 ft 305 kts 306°
2026-05-07 19:53 25.53108 -79.94639 11489 ft 306 kts 306°
2026-05-07 19:53 25.54337 -79.96560 11364 ft 306 kts 306°
2026-05-07 19:53 25.55568 -79.98485 11235 ft 305 kts 306°
2026-05-07 19:53 25.56796 -80.00406 11104 ft 304 kts 306°
2026-05-07 19:54 25.57998 -80.02287 10968 ft 295 kts 306°
2026-05-07 19:54 25.59178 -80.04135 10687 ft 293 kts 306°
2026-05-07 19:54 25.60350 -80.05970 10336 ft 289 kts 305°
2026-05-07 19:54 25.61500 -80.07772 10023 ft 284 kts 305°
2026-05-07 19:55 25.62617 -80.09524 9728 ft 279 kts 305°
2026-05-07 19:55 25.63732 -80.11271 9437 ft 276 kts 305°
2026-05-07 19:55 25.64842 -80.13013 9158 ft 276 kts 305°
2026-05-07 19:55 25.65801 -80.14849 8940 ft 274 kts 296°
2026-05-07 19:56 25.66593 -80.16717 8918 ft 263 kts 295°
2026-05-07 19:56 25.67380 -80.18545 8825 ft 266 kts 295°
2026-05-07 19:56 25.68195 -80.20414 8710 ft 272 kts 296°
2026-05-07 19:56 25.69002 -80.22304 8487 ft 275 kts 295°
2026-05-07 19:57 25.69817 -80.24243 8117 ft 273 kts 295°
2026-05-07 19:57 25.70610 -80.26126 7759 ft 272 kts 294°
2026-05-07 19:57 25.71027 -80.28161 7295 ft 273 kts 274°
2026-05-07 19:57 25.71033 -80.30270 6990 ft 269 kts 269°
2026-05-07 19:58 25.70979 -80.32344 6629 ft 268 kts 268°
2026-05-07 19:58 25.70907 -80.34377 6267 ft 266 kts 267°
2026-05-07 19:58 25.70825 -80.36419 5908 ft 265 kts 267°
2026-05-07 19:58 25.70737 -80.38447 5644 ft 260 kts 266°
2026-05-07 19:59 25.70647 -80.40404 5535 ft 249 kts 266°
2026-05-07 19:59 25.70561 -80.42266 5437 ft 233 kts 266°
2026-05-07 19:59 25.70511 -80.44007 5274 ft 222 kts 271°
2026-05-07 19:59 25.70998 -80.45634 4887 ft 224 kts 296°
2026-05-07 20:00 25.72015 -80.46921 4541 ft 224 kts 319°
2026-05-07 20:00 25.73394 -80.47657 4273 ft 219 kts 342°
2026-05-07 20:00 25.74902 -80.47750 3914 ft 217 kts
2026-05-07 20:00 25.76305 -80.47313 3594 ft 207 kts 19°
2026-05-07 20:01 25.77691 -80.46910 3139 ft 205 kts 19°
2026-05-07 20:01 25.78818 -80.46024 2763 ft 192 kts 46°
2026-05-07 20:01 25.79440 -80.44803 2478 ft 175 kts 71°
2026-05-07 20:01 25.79627 -80.43529 2266 ft 160 kts 86°
2026-05-07 20:02 25.79623 -80.42321 2084 ft 155 kts 92°
2026-05-07 20:02 25.79629 -80.41123 1911 ft 155 kts 91°
2026-05-07 20:02 25.79664 -80.39929 1722 ft 155 kts 90°
2026-05-07 20:02 25.79714 -80.38751 1534 ft 154 kts 89°
2026-05-07 20:03 25.79762 -80.37548 1325 ft 155 kts 88°
2026-05-07 20:03 25.79813 -80.36366 1134 ft 156 kts 87°
2026-05-07 20:03 25.79862 -80.35166 928 ft 155 kts 87°
2026-05-07 20:03 25.79912 -80.33970 716 ft 155 kts 87°
2026-05-07 20:04 25.79961 -80.32780 513 ft 154 kts 87°
2026-05-07 20:04 25.80010 -80.31593 313 ft 154 kts 87°
2026-05-07 20:04 25.80063 -80.30408 129 ft 153 kts 87°
2026-05-07 20:04 25.80110 -80.29238 49 ft 151 kts 88°
2026-05-07 20:05 25.80143 -80.28080 20 ft 140 kts 88°
2026-05-07 20:05 25.80167 -80.27202 20 ft 79 kts 86°
2026-05-07 20:05 25.80116 -80.26923 20 ft 15 kts 175°
2026-05-07 20:05 25.80075 -80.26986 19 ft 15 kts 265°
2026-05-07 20:06 25.80014 -80.27111 19 ft 22 kts 248°
2026-05-07 20:06 25.79987 -80.27317 19 ft 32 kts 265°
2026-05-07 20:06 25.79981 -80.27565 19 ft 31 kts 266°
2026-05-07 20:06 25.79918 -80.27761 19 ft 24 kts 244°
2026-05-07 20:07 25.79880 -80.27875 19 ft 6 kts 232°
2026-05-07 20:07 25.79846 -80.27889 19 ft 5 kts 181°
2026-05-07 20:07 25.79816 -80.27888 19 ft 5 kts 178°
2026-05-07 20:07 25.79779 -80.27887 19 ft 0 kts 177°